Weather History for Shreveport Downtown, LA

Change the Weather History Date:

Monday, December 31, 2012

  Actual Average (KSHV) Record (KSHV)
Temperature  
Mean Temperature 46 °F 46 °F  
Max Temperature 52 °F 57 °F 81 °F (1951)
Min Temperature 39 °F 36 °F 12 °F (1983)
Degree Days  
Heating Degree Days 20 19  
Month to date heating degree days 531  
Since 1 July heating degree days 902  
Cooling Degree Days 0 0  
Month to date cooling degree days 7  
Year to date cooling degree days 2481  
Moisture  
Dew Point 45 °F    
Average Humidity 89    
Maximum Humidity 100    
Minimum Humidity 58    
Precipitation  
Precipitation 1.00 in 0.13 in 2.46 in (1949)
Month to date precipitation 4.77  
Year to date precipitation 51.41  
Snow  
Snow 0.00 in - - ()
Month to date snowfall  
Since 1 July snowfall  
Snow Depth -    
Sea Level Pressure  
Sea Level Pressure 30.07 in    
Wind  
Wind Speed 6 mph (East)    
Max Wind Speed 13 mph    
Max Gust Speed -    
Visibility 6 miles    
Events Rain    
T = Trace of Precipitation, MM = Missing Value Source: NWS Daily Summary

Daily Weather History Graph

Daily Weather History Graph

Search for Another Location

Airport:

Trip Planner

Search our weather history database for the weather conditions in past years. The results will help you decide how hot, cold, wet, or windy it might be!

Date:

Astronomy

Dec. 31, 2012 Rise Set
Actual Time 7:16 AM CST 5:19 PM CST
Civil Twilight 6:49 AM CST 5:47 PM CST
Nautical Twilight 6:18 AM CST 6:17 PM CST
Astronomical Twilight 5:49 AM CST 6:47 PM CST
Moon 8:38 PM CST (12/31) 9:09 AM CST (12/31)
Length of Visible Light 10h 57m
Length of Day
10h 03m
Waning Gibbous, 90% of the Moon is Illuminated
Dec 31
Waning Gibbous
Jan 4
Last Quarter
Jan 11
New
Jan 18
First Quarter
Jan 26
Full

Hourly Weather History & Observations

Time (CST) Temp. Windchill Dew Point Humidity Pressure Visibility Wind Dir Wind Speed Gust Speed Precip Events Conditions
12:53 AM 39.9 °F 36.7 °F 30.0 °F 68% 30.30 in 10.0 mi SE 4.6 mph - N/A   Mostly Cloudy
1:53 AM 39.9 °F 36.7 °F 30.0 °F 68% 30.29 in 10.0 mi SE 4.6 mph - N/A   Overcast
2:53 AM 41.0 °F 36.4 °F 30.9 °F 67% 30.28 in 10.0 mi SSE 6.9 mph - N/A   Overcast
3:53 AM 41.0 °F 37.1 °F 30.9 °F 67% 30.26 in 10.0 mi SE 5.8 mph - N/A   Overcast
4:53 AM 41.0 °F 36.4 °F 30.9 °F 67% 30.24 in 10.0 mi SE 6.9 mph - N/A   Overcast
5:53 AM 42.1 °F 38.4 °F 30.0 °F 62% 30.22 in 10.0 mi ESE 5.8 mph - N/A   Overcast
6:53 AM 42.1 °F 38.4 °F 30.0 °F 62% 30.21 in 10.0 mi SE 5.8 mph - N/A   Overcast
7:53 AM 44.1 °F 39.0 °F 30.0 °F 58% 30.18 in 10.0 mi SE 9.2 mph - N/A   Overcast
8:53 AM 44.1 °F 38.6 °F 34.0 °F 68% 30.19 in 10.0 mi SE 10.4 mph - N/A   Overcast
9:08 AM 44.6 °F 38.8 °F 35.6 °F 71% 30.18 in 10.0 mi SE 11.5 mph - N/A   Overcast
9:53 AM 45.0 °F 39.7 °F 37.9 °F 76% 30.18 in 10.0 mi SE 10.4 mph - N/A   Overcast
10:12 AM 44.6 °F 38.8 °F 37.4 °F 76% 30.16 in 10.0 mi SE 11.5 mph - N/A   Overcast
10:53 AM 46.9 °F - 39.0 °F 74% 30.16 in 10.0 mi SSE 11.5 mph - N/A   Overcast
11:53 AM 48.0 °F - 41.0 °F 77% 30.12 in 10.0 mi SSE 10.4 mph - N/A   Overcast
12:53 PM 48.9 °F - 45.0 °F 86% 30.05 in 7.0 mi SE 12.7 mph - 0.01 in Rain Light Rain
1:53 PM 50.0 °F - 45.0 °F 83% 30.02 in 10.0 mi SSE 10.4 mph - 0.00 in   Overcast
2:53 PM 50.0 °F - 46.9 °F 89% 30.00 in 6.0 mi SE 9.2 mph - 0.01 in Rain Light Rain
3:53 PM 51.1 °F - 48.0 °F 89% 29.99 in 8.0 mi South 6.9 mph - 0.03 in Rain Light Rain
4:53 PM 52.0 °F - 50.0 °F 93% 29.98 in 7.0 mi SSE 8.1 mph - 0.01 in   Overcast
5:21 PM 51.8 °F - 51.8 °F 100% 30.01 in 5.0 mi NW 10.4 mph - 0.01 in Rain Light Rain
5:30 PM 51.8 °F - 51.8 °F 100% 30.01 in 3.0 mi NW 8.1 mph - 0.06 in Rain Heavy Rain
5:32 PM 51.8 °F - 51.8 °F 100% 30.01 in 2.5 mi NW 6.9 mph - 0.07 in Rain Rain
5:37 PM 51.8 °F - 51.8 °F 100% 30.01 in 4.0 mi NNW 4.6 mph - 0.07 in Rain Light Rain
5:53 PM 52.0 °F - 52.0 °F 100% 30.01 in 4.0 mi NNW 3.5 mph - 0.10 in Rain Rain
6:09 PM 51.8 °F - 51.8 °F 100% 30.01 in 5.0 mi North 4.6 mph - 0.03 in Rain Light Rain
6:36 PM 51.8 °F - 51.8 °F 100% 30.01 in 4.0 mi NW 5.8 mph - 0.10 in Rain Rain
6:50 PM 51.8 °F - 51.8 °F 100% 30.00 in 2.5 mi NNE 5.8 mph - 0.15 in Rain Rain
6:53 PM 52.0 °F - 51.1 °F 97% 30.01 in 3.0 mi North 4.6 mph - 0.16 in Rain Rain
7:18 PM 51.8 °F - 51.8 °F 100% 30.00 in 2.5 mi Variable 3.5 mph - 0.08 in Rain Rain
7:25 PM 51.8 °F - 51.8 °F 100% 30.01 in 2.0 mi Calm Calm - 0.11 in Rain Rain
7:36 PM 51.8 °F - 50.0 °F 94% 30.01 in 4.0 mi NNW 4.6 mph - 0.12 in Rain Light Rain
7:53 PM 50.0 °F - 50.0 °F 100% 30.00 in 5.0 mi North 4.6 mph - 0.14 in Rain Light Rain
8:11 PM 50.0 °F - 50.0 °F 100% 30.00 in 5.0 mi North 3.5 mph - 0.04 in Rain Light Rain
8:53 PM 50.0 °F - 50.0 °F 100% 30.02 in 4.0 mi North 3.5 mph - 0.10 in Rain Rain
9:04 PM 50.0 °F - 50.0 °F 100% 30.02 in 3.0 mi Calm Calm - 0.02 in Rain Light Rain
9:53 PM 50.0 °F - 50.0 °F 100% 30.02 in 2.0 mi Calm Calm - 0.17 in Rain Heavy Rain
9:56 PM 50.0 °F - 50.0 °F 100% 30.02 in 1.8 mi Calm Calm - 0.01 in Rain Heavy Rain
10:03 PM 50.0 °F - 50.0 °F 100% 30.01 in 2.5 mi Calm Calm - 0.03 in Rain Rain
10:10 PM 50.0 °F - 50.0 °F 100% 30.02 in 3.0 mi Calm Calm - 0.05 in Rain Rain
10:25 PM 50.0 °F - 50.0 °F 100% 30.02 in 2.5 mi Calm Calm - 0.10 in Rain Heavy Rain
10:53 PM 50.0 °F - 50.0 °F 100% 30.02 in 2.5 mi Calm Calm - 0.20 in Rain Rain
11:07 PM 50.0 °F - 50.0 °F 100% 30.02 in 2.5 mi North 3.5 mph - 0.03 in Rain Rain
11:13 PM 50.0 °F - 50.0 °F 100% 30.02 in 3.0 mi NNW 4.6 mph - 0.04 in Rain Light Rain
11:20 PM 50.0 °F - 50.0 °F 100% 30.02 in 4.0 mi NNW 3.5 mph - 0.05 in Rain Light Rain
11:53 PM 48.9 °F - 48.9 °F 100% 30.02 in 7.0 mi North 5.8 mph - 0.07 in Rain Light Rain